Weather History for Elizabeth City, NC

Change the Weather History Date:

Wednesday, December 12, 2012

  Actual Average Record
Temperature  
Mean Temperature 51 °F 45 °F  
Max Temperature 53 °F 55 °F 78 °F (2007)
Min Temperature 48 °F 35 °F 14 °F (1937)
Degree Days  
Heating Degree Days 14 20  
Month to date heating degree days 99 220  
Since 1 July heating degree days 608 735  
Cooling Degree Days 0 0  
Month to date cooling degree days 3 0  
Year to date cooling degree days 2236 1588  
Moisture  
Dew Point 43 °F    
Average Humidity 76    
Maximum Humidity 86    
Minimum Humidity 66    
Precipitation  
Precipitation 0.16 in 0.09 in 1.45 in (1936)
Month to date precipitation 0.26 0.99  
Year to date precipitation 44.18 45.01  
Snow  
Snow 0.00 in - 11.50 in (1958)
Month to date snowfall 0.0  
Since 1 July snowfall 0.0  
Snow Depth 0.00 in    
Sea Level Pressure  
Sea Level Pressure 30.27 in    
Wind  
Wind Speed 15 mph (NNE)    
Max Wind Speed 23 mph    
Max Gust Speed 29 mph    
Visibility 9 miles    
Events Rain    
T = Trace of Precipitation, MM = Missing Value Source: NWS Daily Summary

Daily Weather History Graph

Daily Weather History Graph

Search for Another Location

Airport:

Trip Planner

Search our weather history database for the weather conditions in past years. The results will help you decide how hot, cold, wet, or windy it might be!

Date:

Astronomy

Dec. 12, 2012 Rise Set
Actual Time 7:06 AM EST 4:50 PM EST
Civil Twilight 6:38 AM EST 5:19 PM EST
Nautical Twilight 6:06 AM EST 5:51 PM EST
Astronomical Twilight 5:34 AM EST 6:22 PM EST
Moon 6:09 AM EST (12/12) 4:24 PM EST (12/12)
Length of Visible Light 10h 40m
Length of Day
9h 43m
Waning Crescent, 1% of the Moon is Illuminated
Dec 12
Waning Crescent
Dec 13
New
Dec 20
First Quarter
Dec 28
Full
Jan 4
Last Quarter

Hourly Weather History & Observations

Time (EST) Temp. Dew Point Humidity Pressure Visibility Wind Dir Wind Speed Gust Speed Precip Events Conditions
12:54 AM 53.1 °F 44.1 °F 71% 30.16 in 10.0 mi North 9.2 mph - N/A   Overcast
1:54 AM 53.1 °F 42.1 °F 66% 30.18 in 10.0 mi NNE 12.7 mph - N/A   Overcast
2:54 AM 51.1 °F 43.0 °F 74% 30.20 in 6.0 mi NNE 11.5 mph - 0.02 in Rain Light Rain
3:54 AM 51.1 °F 44.1 °F 77% 30.20 in 10.0 mi NNE 12.7 mph - 0.01 in   Overcast
4:54 AM 51.1 °F 44.1 °F 77% 30.21 in 10.0 mi NNE 16.1 mph - 0.00 in   Overcast
5:54 AM 51.1 °F 43.0 °F 74% 30.23 in 10.0 mi NNE 18.4 mph 24.2 mph 0.00 in   Overcast
6:54 AM 50.0 °F 44.1 °F 80% 30.25 in 5.0 mi North 11.5 mph 21.9 mph 0.01 in Rain Light Rain
7:16 AM 48.2 °F 44.6 °F 87% 30.25 in 4.0 mi NNE 15.0 mph - 0.03 in Rain Light Rain
7:40 AM 48.2 °F 44.6 °F 87% 30.26 in 8.0 mi North 15.0 mph - 0.04 in Rain Light Rain
7:54 AM 48.0 °F 44.1 °F 86% 30.26 in 6.0 mi North 12.7 mph - 0.05 in Rain Light Rain
8:54 AM 48.9 °F 44.1 °F 83% 30.28 in 10.0 mi North 15.0 mph - 0.00 in Rain Light Rain
9:54 AM 48.9 °F 44.1 °F 83% 30.29 in 10.0 mi NNE 16.1 mph - 0.04 in   Overcast
10:10 AM 48.2 °F 44.6 °F 87% 30.30 in 10.0 mi NNE 17.3 mph 23.0 mph 0.00 in Rain Light Rain
10:54 AM 50.0 °F 44.1 °F 80% 30.32 in 10.0 mi NNE 13.8 mph - 0.00 in Rain Light Rain
11:02 AM 50.0 °F 44.6 °F 82% 30.32 in 10.0 mi North 15.0 mph - 0.00 in   Overcast
11:20 AM 50.0 °F 42.8 °F 76% 30.30 in 10.0 mi NNE 17.3 mph - 0.00 in   Overcast
11:54 AM 50.0 °F 43.0 °F 77% 30.28 in 8.0 mi NNE 18.4 mph - 0.00 in Rain Light Rain
12:11 PM 48.2 °F 44.6 °F 87% 30.30 in 10.0 mi North 15.0 mph - 0.00 in   Overcast
12:36 PM 50.0 °F 44.6 °F 82% 30.28 in 10.0 mi NNE 17.3 mph - 0.00 in Rain Light Rain
12:44 PM 50.0 °F 44.6 °F 82% 30.28 in 10.0 mi North 16.1 mph 24.2 mph 0.00 in Rain Light Rain
12:54 PM 50.0 °F 45.0 °F 83% 30.28 in 10.0 mi NNE 11.5 mph 19.6 mph 0.00 in   Overcast
1:54 PM 50.0 °F 41.0 °F 71% 30.27 in 10.0 mi NNE 18.4 mph 25.3 mph N/A   Overcast
2:54 PM 50.0 °F 39.9 °F 68% 30.26 in 10.0 mi NNE 18.4 mph 24.2 mph 0.00 in Rain Light Rain
3:54 PM 50.0 °F 39.9 °F 68% 30.27 in 10.0 mi NNE 19.6 mph 28.8 mph 0.00 in   Overcast
4:54 PM 50.0 °F 39.0 °F 66% 30.28 in 10.0 mi North 15.0 mph 23.0 mph N/A   Overcast
5:54 PM 50.0 °F 39.0 °F 66% 30.30 in 10.0 mi NNE 18.4 mph 25.3 mph N/A   Overcast
6:54 PM 50.0 °F 41.0 °F 71% 30.31 in 10.0 mi North 12.7 mph 21.9 mph N/A   Overcast
7:54 PM 50.0 °F 42.1 °F 74% 30.29 in 10.0 mi NNE 15.0 mph 23.0 mph 0.00 in   Overcast
8:54 PM 50.0 °F 42.1 °F 74% 30.29 in 10.0 mi NNE 16.1 mph - 0.00 in Rain Light Rain
9:54 PM 50.0 °F 42.1 °F 74% 30.30 in 10.0 mi NNE 18.4 mph 25.3 mph 0.00 in Rain Light Rain
10:50 PM 48.2 °F 42.8 °F 82% 30.26 in 10.0 mi NNE 20.7 mph - 0.01 in Rain Light Rain
10:54 PM 48.9 °F 41.0 °F 74% 30.27 in 10.0 mi NNE 18.4 mph - 0.01 in Rain Light Rain
11:54 PM 48.9 °F 42.1 °F 77% 30.27 in 9.0 mi NNE 19.6 mph 24.2 mph 0.01 in Rain Light Rain